FW7632 Weather Reports


Display with metric or nautical units.
time (UTC)temp
F
wind
direction
speed
MPH
gust
MPH
rain 1hr
in
rain 24hr
in
rain mn
in
humidity
%
barometer
mb
20260506091541 54 88 0.0 4.0 0.00 0.13 0.00 1 1004.9
20260506090035 55 88 2.0 3.0 0.00 0.13 0.00 1 1004.9
20260506084532 55 88 0.0 2.0 0.00 0.13 0.00 1 1005.3
20260506083026 55 88 0.0 2.0 0.00 0.13 0.00 1 1005.4
20260506081522 55 88 0.0 2.0 0.00 0.13 0.00 1 1005.2
20260506073009 55 88 0.0 2.0 0.00 0.13 0.00 1 1005.1
20260506071507 55 88 0.0 6.0 0.00 0.13 0.00 1 1005.1
20260506070117 55 101 0.0 3.0 0.00 0.13 0.00 1 1005.2
20260506061546 55 106 0.0 9.0 0.00 0.13 0.00 1 1005.8
20260506044524 56 73 1.0 5.0 0.00 0.13 0.00 1 1006.9
20260506043017 56 86 2.0 6.0 0.00 0.13 0.00 1 1006.8
20260506041510 56 109 1.0 6.0 0.00 0.13 0.13 1 1006.9
20260506040006 57 86 2.0 8.0 0.00 0.13 0.13 1 1007.1
20260506034502 57 90 3.0 6.0 0.00 0.13 0.13 1 1007.3
20260506033103 57 133 4.0 8.0 0.00 0.13 0.13 1 1007.6
20260506031601 58 87 2.0 6.0 0.00 0.13 0.13 1 1007.3
20260506030108 58 76 3.0 7.0 0.00 0.13 0.13 1 1007.3
20260506024545 59 36 1.0 4.0 0.00 0.13 0.13 1 1007.3
20260506024515 59 36 1.0 5.0 0.00 0.13 0.13 1 1007.3
20260506023040 61 346 6.0 11.0 0.00 0.13 0.13 1 1007.4
20260506021536 61 341 0.0 3.0 0.00 0.13 0.13 1 1006.9
20260506020031 61 341 2.0 8.0 0.00 0.13 0.13 1 1006.8
20260506014527 62 48 2.0 6.0 0.00 0.13 0.13 1 1006.6
20260506013024 62 349 0.0 2.0 0.00 0.13 0.13 1 1006.4
20260506011520 63 348 2.0 8.0 0.00 0.13 0.13 1 1006.0
20260506010014 62 348 3.0 8.0 0.00 0.13 0.13 1 1006.0
20260506004509 62 203 1.0 2.0 0.00 0.13 0.13 1 1005.4
20260506003005 62 203 0.0 2.0 0.00 0.13 0.13 1 1005.1
20260506001604 63 203 0.0 0.0 0.00 0.13 0.13 1 1005.0
20260506000056 63 203 0.0 2.0 0.00 0.13 0.13 1 1004.9
20260505234611 64 203 1.0 2.0 0.00 0.13 0.13 1 1004.8
20260505233046 64 203 0.0 1.0 0.00 0.13 0.13 1 1004.9
20260505231543 64 203 0.0 2.0 0.01 0.13 0.13 1 1004.9
20260505230038 65 203 1.0 2.0 0.01 0.13 0.13 1 1004.7
20260505224534 65 203 1.0 2.0 0.01 0.13 0.13 1 1004.7
20260505223029 66 203 0.0 3.0 0.01 0.13 0.13 1 1004.6
20260505221525 67 202 0.0 5.0 0.00 0.12 0.12 1 1004.9
20260505220020 67 201 0.0 2.0 0.00 0.12 0.12 1 1004.1
20260505214520 68 199 0.0 3.0 0.00 0.12 0.12 1 1004.2
20260505213012 67 200 1.0 3.0 0.00 0.12 0.12 1 1003.8
20260505211508 67 200 1.0 3.0 0.00 0.12 0.12 1 1004.0
20260505210008 66 200 2.0 4.0 0.00 0.12 0.12 1 1003.9
20260505204602 65 207 1.0 3.0 0.06 0.12 0.12 1 1004.0
20260505203055 64 207 0.0 3.0 0.08 0.12 0.12 1 1004.3
20260505201602 65 34 1.0 5.0 0.08 0.12 0.12 1 1004.4
20260505200100 67 226 2.0 19.0 0.08 0.12 0.12 1 1004.3
20260505194542 75 280 10.0 25.0 0.01 0.05 0.05 50 1004.6
20260505193037 79 238 5.0 14.0 0.00 0.04 0.04 35 1002.1
20260505191533 80 232 7.0 15.0 0.00 0.04 0.04 32 1002.0
20260505190037 80 217 7.0 21.0 0.00 0.04 0.04 34 1002.1
20260505184527 79 220 8.0 21.0 0.01 0.04 0.04 37 1002.5
20260505183038 76 234 6.0 11.0 0.01 0.04 0.04 44 1002.6
20260505181515 74 263 2.0 8.0 0.01 0.04 0.04 50 1003.2
20260505180010 75 252 7.0 17.0 0.01 0.04 0.04 49 1003.6
20260505174505 76 247 4.0 12.0 0.00 0.03 0.03 47 1003.6
20260505173002 77 216 5.0 15.0 0.00 0.03 0.03 42 1003.8
20260505171556 79 212 7.0 13.0 0.00 0.03 0.03 39 1003.8
20260505170054 80 235 5.0 17.0 0.00 0.03 0.03 38 1003.4
20260505164547 79 219 3.0 14.0 0.00 0.03 0.03 39 1003.3
20260505163044 79 221 6.0 15.0 0.00 0.03 0.03 39 1003.6
20260505161540 80 236 7.0 17.0 0.00 0.03 0.03 37 1003.8
20260505153027 79 217 8.0 21.0 0.00 0.03 0.03 38 1004.0
20260505151521 78 197 9.0 18.0 0.00 0.03 0.03 39 1004.1
20260505140124 72 203 6.0 14.0 0.00 0.03 0.03 46 1004.5
20260505124543 64 220 5.0 15.0 0.00 0.03 0.03 40 1005.6
20260505123032 63 197 6.0 18.0 0.03 0.03 0.03 35 1005.2
20260505121529 62 238 4.0 10.0 0.03 0.03 0.03 24 1005.3
20260505120024 61 224 3.0 11.0 0.03 0.03 0.03 1 1005.2
20260505114519 62 206 4.0 10.0 0.03 0.03 0.03 1 1005.0
20260505113016 64 220 4.0 9.0 0.00 0.00 0.00 41 1005.9
20260505111513 64 269 3.0 8.0 0.00 0.00 0.00 51 1005.5
20260505101513 62 225 4.0 10.0 0.00 0.00 0.00 51 1004.8
20260505100009 62 242 4.0 14.0 0.00 0.00 0.00 51 1004.7
20260505094517 62 197 4.0 12.0 0.00 0.00 0.00 51 1004.4